Voltar ao catálogo

COSMOS 1818

AtivoMilitarLEO
NORAD 17369·PAYLOAD·🇷🇺 Russia

Lançado Feb 1, 1987 de Baikonur Cosmodrome

Loading…

Próximas Passagens (próximas 24 horas)

TLE

AtualizadoSource: Space-Track

Época: Sep 14, 2026, 13:58 UTC

1 17369U 87011A   26257.58248861 -.00000056  00000-0  16527-4 0  9994
2 17369  65.0134 356.8564 0019938 282.2089  77.6763 14.31881120121598

Acompanhe COSMOS 1818 em tempo real com AllMySat

Download on the App Store